Regional Weather Roundup
Issued by NWS New Orleans/Baton Rouge, LA

Home | Current Version | Previous Version | Text Only | Print | Product List | Glossary On
Versions: 1 2 3 4 5 6 7 8 9 10 11 12 13 14 15 16 17 18 19 20 21 22 23 24 25 26 27 28 29 30 31 32 33 34 35 36 37 38 39 40 41 42 43 44 45 46 47 48 49 50
000
ASUS44 KLIX 210112
RWRLIX
NEW ORLEANS REGIONAL WEATHER ROUNDUP
NATIONAL WEATHER SERVICE NEW ORLEANS LA
700 PM CST MON FEB 20 2017

NOTE: "FAIR" INDICATES FEW OR NO CLOUDS BELOW 12,000 FEET WITH NO
      SIGNIFICANT WEATHER AND/OR OBSTRUCTIONS TO VISIBILITY.
      SKY/WX - SKY CONDITION AND SIGNIFICANT WEATHER.
      TMP - AIR TEMPERATURE.     DP    - DEWPOINT TEMPERATURE.
      RH  - RELATIVE HUMIDITY.   PRES  - PRESSURE.
      HI  - HEAT INDEX.          WCI   - WIND CHILL INDEX.

*  THESE STATIONS ARE NOT NWS OR FAA STATIONS AND ARE NOT UNDER
   NWS QUALITY CONTROL.

LAZ038-040-048-061>063-065>067-069-210200-
SOUTHEAST LOUISIANA

CITY           SKY/WX    TMP DP  RH WIND       PRES   REMARKS
N.O. AUDUBON   NOT AVBL
N.O. INTL ARPT CLOUDY    72  68  87 SE15      29.96F
N.O. LAKEFRONT CLOUDY    71  68  90 SE14      29.98F
N.O. DOWNTOWN*   N/A     71  68  90 SE7       29.98F
RESERVE*       CLOUDY    74  70  87 SE14G21   29.94F
SLIDELL        CLOUDY    71  64  78 SE9G18    29.98F
BATON ROUGE    CLOUDY    72  67  84 E15       29.90F
BOOTHVILLE     CLOUDY    67  67 100 SE9       30.00F
BELLE CHASSE   CLOUDY    71  69  93 SE13G20   29.96F
BOGALUSA*      CLOUDY    71  62  72 SE13      30.00S
GALLIANO*      CLOUDY    72  67  85 SE8G16    29.96F
NEW ROADS*     LGT RAIN  63  59  88 NW24G32   29.93R
GONZALES*      CLOUDY    73  68  86 SE7       29.92S
HAMMOND*       CLOUDY    70  63  78 SE14G23   29.96S
HOUMA*         CLOUDY    73  70  92 SE16G22   29.94F
PORT FOURCHON* CLOUDY    70  68  94 SE13G20   29.96F FOG

$$

MSZ070-080>082-210200-
SOUTHERN MISSISSIPPI

CITY           SKY/WX    TMP DP  RH WIND       PRES   REMARKS
MCCOMB         CLOUDY    72  61  68 SE13      29.95S
GULFPORT       CLOUDY    69  66  90 SE16      30.01F
BILOXI         CLOUDY    69  65  89 SE14      30.02S
PASCAGOULA     CLOUDY    68  64  87 SE8       30.04S
STENNIS ARPT*  MOCLDY    66  63  88 E9        30.00F

$$

COASTAL OBSERVATIONS
LAKE AND NEARSHORE STATIONS

STATION/POSITION TIME  TEMP    WIND        PRES    WAVE
                       AIR SEA DIR/SP/G            HT/PER
                 (UTC) (F)     (DEG/KT/KT) (MB)    (FT/S)
PASCAGOULA       0048   69     100/ 14/ 18 1016.7
WAVELAND YACHT   0048   68 66  120/ 13/ 16 1015.7
GRAND ISLE       0048   70 68  140/  9/ 13 1015.1
SOUTHWEST PASS   0048          130/ 14/ 17   N/A
NEW CANAL        0048   72 66  130/  3/ 10 1014.0
SHELL BEACH      0048   69 69  120/ 17/ 19 1015.3

OFFSHORE STATIONS

STATION/POSITION TIME  TEMP    WIND        PRES    WAVE
                       AIR SEA DIR/SP/G            HT/PER
                 (UTC) (F)     (DEG/KT/KT) (MB)    (FT/S)

$$




USA.gov is the U.S. government's official web portal to all federal, state and local government web resources and services.